| time (UTC) | temp C | wind direction | speed KPH | gust KPH | rain 1hr cm | rain 24hr cm | rain mn cm | humidity % | barometer mb |
| 20260905085503 | 26 | 152 | 0.0 | 0.0 | 0.00 | 0.00 | 0.00 | 83 | 1008.4 |
| 20260905084504 | 26 | 153 | 0.0 | 0.0 | 0.00 | 0.00 | 0.00 | 83 | 1008.5 |
| 20260905083503 | 26 | 153 | 0.0 | 0.0 | 0.00 | 0.00 | 0.00 | 83 | 1008.5 |
| 20260905082504 | 26 | 153 | 0.0 | 0.0 | 0.00 | 0.00 | 0.00 | 83 | 1008.6 |
| 20260905081506 | 26 | 152 | 0.0 | 0.0 | 0.00 | 0.00 | 0.00 | 82 | 1008.6 |
| 20260905080503 | 26 | 153 | 0.0 | 0.0 | 0.00 | 0.00 | 0.00 | 83 | 1008.6 |
| 20260905075504 | 26 | 152 | 0.0 | 0.0 | 0.00 | 0.00 | 0.00 | 82 | 1008.6 |
| 20260905074504 | 26 | 152 | 0.0 | 0.0 | 0.00 | 0.00 | 0.00 | 82 | 1008.8 |
| 20260905073503 | 26 | 153 | 0.0 | 0.0 | 0.00 | 0.00 | 0.00 | 82 | 1008.8 |
| 20260905072503 | 26 | 152 | 0.0 | 0.0 | 0.00 | 0.00 | 0.00 | 82 | 1009.0 |
| 20260905071503 | 26 | 152 | 0.0 | 0.0 | 0.00 | 0.00 | 0.00 | 82 | 1009.1 |
| 20260905070503 | 27 | 153 | 0.0 | 0.0 | 0.00 | 0.00 | 0.00 | 82 | 1009.1 |
| 20260905065504 | 27 | 153 | 0.0 | 0.0 | 0.00 | 0.00 | 0.00 | 81 | 1009.0 |
| 20260905064503 | 27 | 153 | 0.0 | 0.0 | 0.00 | 0.00 | 0.00 | 81 | 1009.1 |
| 20260905063503 | 27 | 152 | 0.0 | 0.0 | 0.00 | 0.00 | 0.00 | 81 | 1009.1 |
| 20260905062504 | 27 | 153 | 0.0 | 0.0 | 0.00 | 0.00 | 0.00 | 81 | 1009.2 |
| 20260905061506 | 27 | 152 | 0.0 | 0.0 | 0.00 | 0.00 | 0.00 | 81 | 1009.3 |
| 20260905060504 | 27 | 153 | 0.0 | 0.0 | 0.00 | 0.00 | 0.00 | 81 | 1009.3 |
| 20260905055503 | 27 | 152 | 0.0 | 0.0 | 0.00 | 0.00 | 0.00 | 80 | 1009.2 |
| 20260905054504 | 27 | 153 | 0.0 | 0.0 | 0.00 | 0.00 | 0.00 | 80 | 1009.4 |
| 20260905053506 | 27 | 152 | 0.0 | 0.0 | 0.00 | 0.00 | 0.00 | 79 | 1009.4 |
| 20260905052507 | 27 | 153 | 0.0 | 0.0 | 0.00 | 0.00 | 0.00 | 79 | 1009.2 |
| 20260905051503 | 27 | 152 | 0.0 | 0.0 | 0.00 | 0.00 | 0.00 | 79 | 1009.2 |
| 20260905050504 | 27 | 152 | 0.0 | 0.0 | 0.00 | 0.00 | 0.41 | 79 | 1009.2 |
| 20260905045503 | 28 | 152 | 0.0 | 0.0 | 0.00 | 0.00 | 0.41 | 79 | 1009.3 |
| 20260905044503 | 28 | 153 | 0.0 | 0.0 | 0.00 | 0.00 | 0.41 | 79 | 1009.5 |
| 20260905043504 | 28 | 153 | 0.0 | 0.0 | 0.00 | 0.00 | 0.41 | 78 | 1009.5 |
| 20260905042503 | 28 | 152 | 0.0 | 1.6 | 0.00 | 0.00 | 0.41 | 78 | 1009.5 |
| 20260905041504 | 28 | 152 | 0.0 | 0.0 | 0.00 | 0.00 | 0.41 | 77 | 1009.6 |
| 20260905040505 | 28 | 153 | 0.0 | 1.6 | 0.00 | 0.00 | 0.41 | 77 | 1009.6 |
| 20260905035503 | 28 | 153 | 0.0 | 1.6 | 0.00 | 0.00 | 0.41 | 76 | 1009.7 |
| 20260905034504 | 28 | 153 | 0.0 | 1.6 | 0.00 | 0.00 | 0.41 | 76 | 1009.7 |
| 20260905033503 | 28 | 153 | 0.0 | 4.8 | 0.00 | 0.00 | 0.41 | 75 | 1009.7 |
| 20260905032504 | 28 | 153 | 0.0 | 4.8 | 0.00 | 0.00 | 0.41 | 75 | 1009.7 |
| 20260905031504 | 28 | 153 | 0.0 | 1.6 | 0.00 | 0.00 | 0.41 | 74 | 1009.7 |
| 20260905030504 | 28 | 153 | 0.0 | 4.8 | 0.00 | 0.00 | 0.41 | 74 | 1009.7 |
| 20260905025504 | 28 | 152 | 1.6 | 4.8 | 0.00 | 0.00 | 0.41 | 74 | 1009.6 |
| 20260905024503 | 28 | 144 | 0.0 | 6.4 | 0.00 | 0.00 | 0.41 | 73 | 1009.5 |
| 20260905023503 | 28 | 144 | 0.0 | 1.6 | 0.00 | 0.00 | 0.41 | 71 | 1009.5 |
| 20260905022503 | 28 | 144 | 0.0 | 0.0 | 0.00 | 0.00 | 0.41 | 68 | 1009.2 |
| 20260905021504 | 29 | 144 | 0.0 | 0.0 | 0.00 | 0.00 | 0.41 | 68 | 1009.1 |
| 20260905020503 | 29 | 144 | 0.0 | 0.0 | 0.00 | 0.00 | 0.41 | 66 | 1009.1 |
| 20260905015503 | 29 | 144 | 0.0 | 0.0 | 0.00 | 0.00 | 0.41 | 65 | 1009.0 |
| 20260905014506 | 30 | 144 | 0.0 | 0.0 | 0.00 | 0.00 | 0.41 | 65 | 1008.7 |
| 20260905013507 | 30 | 144 | 0.0 | 0.0 | 0.00 | 0.00 | 0.41 | 64 | 1008.7 |
| 20260905012507 | 30 | 144 | 0.0 | 0.0 | 0.00 | 0.00 | 0.41 | 63 | 1008.7 |
| 20260905011503 | 31 | 144 | 0.0 | 0.0 | 0.00 | 0.00 | 0.41 | 62 | 1008.6 |
| 20260905010503 | 31 | 144 | 0.0 | 6.4 | 0.00 | 0.00 | 0.41 | 61 | 1008.6 |
| 20260905005503 | 31 | 140 | 0.0 | 3.2 | 0.00 | 0.00 | 0.41 | 60 | 1008.5 |
| 20260905004503 | 31 | 140 | 0.0 | 4.8 | 0.00 | 0.00 | 0.41 | 59 | 1008.3 |
| 20260905003503 | 32 | 140 | 0.0 | 0.0 | 0.00 | 0.00 | 0.41 | 59 | 1008.3 |
| 20260905002503 | 32 | 140 | 0.0 | 4.8 | 0.00 | 0.00 | 0.41 | 58 | 1008.1 |
| 20260905001503 | 32 | 140 | 0.0 | 8.0 | 0.00 | 0.00 | 0.41 | 57 | 1008.0 |
| 20260905000503 | 33 | 140 | 0.0 | 4.8 | 0.00 | 0.00 | 0.41 | 56 | 1008.0 |
| 20260904235503 | 33 | 135 | 0.0 | 4.8 | 0.00 | 0.00 | 0.41 | 54 | 1008.0 |
| 20260904234503 | 33 | 135 | 0.0 | 6.4 | 0.00 | 0.00 | 0.41 | 52 | 1008.0 |
| 20260904233503 | 33 | 134 | 0.0 | 1.6 | 0.00 | 0.00 | 0.41 | 52 | 1008.0 |
| 20260904232503 | 34 | 134 | 0.0 | 0.0 | 0.00 | 0.00 | 0.41 | 51 | 1007.8 |
| 20260904231503 | 35 | 134 | 0.0 | 3.2 | 0.00 | 0.00 | 0.41 | 50 | 1008.0 |
| 20260904230506 | 35 | 196 | 0.0 | 4.8 | 0.00 | 0.00 | 0.41 | 50 | 1008.0 |
| 20260904225503 | 35 | 196 | 0.0 | 6.4 | 0.00 | 0.00 | 0.41 | 48 | 1008.1 |
| 20260904224504 | 35 | 196 | 0.0 | 1.6 | 0.00 | 0.00 | 0.41 | 48 | 1008.1 |
| 20260904223503 | 35 | 196 | 1.6 | 4.8 | 0.00 | 0.00 | 0.41 | 50 | 1008.1 |
| 20260904222503 | 35 | 196 | 0.0 | 8.0 | 0.00 | 0.00 | 0.41 | 51 | 1008.2 |
| 20260904221503 | 35 | 196 | 0.0 | 8.0 | 0.00 | 0.00 | 0.41 | 52 | 1008.2 |
| 20260904220503 | 35 | 228 | 0.0 | 3.2 | 0.00 | 0.00 | 0.41 | 52 | 1008.2 |
| 20260904215503 | 35 | 230 | 0.0 | 4.8 | 0.00 | 0.00 | 0.41 | 52 | 1008.3 |
| 20260904214506 | 35 | 0 | 0.0 | 1.6 | 0.00 | 0.00 | 0.41 | 55 | 1008.5 |
| 20260904213503 | 35 | 0 | 0.0 | 3.2 | 0.00 | 0.00 | 0.41 | 57 | 1008.5 |
| 20260904212503 | 34 | 0 | 0.0 | 1.6 | 0.00 | 0.00 | 0.41 | 58 | 1008.7 |
| 20260904211503 | 34 | 0 | 0.0 | 1.6 | 0.00 | 0.00 | 0.41 | 59 | 1008.8 |
| 20260904210503 | 33 | 355 | 0.0 | 3.2 | 0.00 | 0.00 | 0.41 | 60 | 1008.8 |
| 20260904205503 | 33 | 355 | 0.0 | 1.6 | 0.00 | 0.00 | 0.41 | 61 | 1009.0 |
| 20260904204506 | 33 | 355 | 0.0 | 3.2 | 0.00 | 0.00 | 0.41 | 65 | 1009.3 |
| 20260904203503 | 32 | 355 | 0.0 | 1.6 | 0.00 | 0.00 | 0.41 | 66 | 1009.3 |
| 20260904202503 | 32 | 355 | 0.0 | 0.0 | 0.00 | 0.00 | 0.41 | 69 | 1009.6 |
| 20260904201503 | 31 | 355 | 0.0 | 0.0 | 0.00 | 0.00 | 0.41 | 72 | 1009.5 |
| 20260904200506 | 31 | 355 | 0.0 | 3.2 | 0.00 | 0.00 | 0.41 | 75 | 1009.5 |
| 20260904195503 | 30 | 355 | 0.0 | 1.6 | 0.00 | 0.00 | 0.41 | 77 | 1010.0 |
| 20260904194502 | 30 | 355 | 0.0 | 1.6 | 0.00 | 0.00 | 0.41 | 82 | 1009.9 |
| 20260904193503 | 29 | 355 | 0.0 | 1.6 | 0.00 | 0.00 | 0.41 | 83 | 1009.9 |
| 20260904192502 | 28 | 355 | 0.0 | 0.0 | 0.00 | 0.00 | 0.41 | 84 | 1009.8 |
| 20260904191503 | 27 | 355 | 0.0 | 0.0 | 0.00 | 0.00 | 0.41 | 83 | 1010.2 |
| 20260904190503 | 27 | 355 | 0.0 | 1.6 | 0.00 | 0.00 | 0.38 | 82 | 1010.2 |
| 20260904173451 | 27 | 229 | 0.0 | 0.0 | 0.00 | 0.00 | 0.38 | 84 | 1011.3 |
| 20260904172453 | 27 | 229 | 0.0 | 0.0 | 0.00 | 0.00 | 0.38 | 83 | 1011.3 |
| 20260904171450 | 27 | 229 | 0.0 | 0.0 | 0.00 | 0.00 | 0.38 | 82 | 1011.3 |
| 20260904170450 | 27 | 229 | 0.0 | 0.0 | 0.00 | 0.00 | 0.38 | 80 | 1011.3 |
| 20260904165450 | 27 | 229 | 0.0 | 0.0 | 0.00 | 0.00 | 0.38 | 80 | 1011.4 |
| 20260904164451 | 28 | 229 | 0.0 | 0.0 | 0.00 | 0.00 | 0.38 | 78 | 1011.3 |
| 20260904163450 | 28 | 232 | 0.0 | 1.6 | 0.00 | 0.00 | 0.38 | 76 | 1011.3 |
| 20260904162453 | 29 | 236 | 0.0 | 0.0 | 0.00 | 0.00 | 0.03 | 75 | 1011.3 |
| 20260904161450 | 30 | 236 | 0.0 | 4.8 | 0.00 | 0.00 | 0.03 | 72 | 1010.8 |
| 20260904160450 | 30 | 237 | 0.0 | 6.4 | 0.00 | 0.00 | 0.00 | 71 | 1010.8 |
| 20260904155451 | 30 | 169 | 4.8 | 6.4 | 0.00 | 0.00 | 0.00 | 72 | 1010.6 |
| 20260904154450 | 31 | 159 | 0.0 | 6.4 | 0.00 | 0.00 | 0.00 | 74 | 1010.3 |
| 20260904153450 | 31 | 159 | 0.0 | 3.2 | 0.00 | 0.00 | 0.00 | 75 | 1010.3 |
| 20260904152450 | 30 | 159 | 0.0 | 4.8 | 0.00 | 0.00 | 0.00 | 79 | 1010.3 |
| 20260904151450 | 30 | 159 | 0.0 | 3.2 | 0.00 | 0.00 | 0.00 | 80 | 1010.3 |
| 20260904150450 | 30 | 159 | 0.0 | 1.6 | 0.00 | 0.00 | 0.00 | 81 | 1010.3 |
| 20260904145450 | 30 | 159 | 3.2 | 4.8 | 0.00 | 0.00 | 0.00 | 84 | 1010.3 |
| 20260904144450 | 29 | 54 | 0.0 | 0.0 | 0.00 | 0.00 | 0.00 | 86 | 1010.2 |
| 20260904143453 | 29 | 54 | 0.0 | 3.2 | 0.00 | 0.00 | 0.00 | 87 | 1010.2 |
| 20260904142450 | 28 | 54 | 3.2 | 4.8 | 0.00 | 0.00 | 0.00 | 89 | 1010.2 |
| 20260904141450 | 28 | 54 | 0.0 | 0.0 | 0.00 | 0.00 | 0.00 | 90 | 1010.2 |
| 20260904140450 | 28 | 54 | 0.0 | 0.0 | 0.00 | 0.00 | 0.00 | 91 | 1010.2 |
| 20260904135450 | 28 | 42 | 0.0 | 3.2 | 0.00 | 0.00 | 0.00 | 92 | 1010.2 |
| 20260904134450 | 27 | 42 | 0.0 | 3.2 | 0.00 | 0.00 | 0.00 | 92 | 1010.2 |
| 20260904133450 | 27 | 42 | 0.0 | 0.0 | 0.00 | 0.00 | 0.00 | 92 | 1010.2 |
| 20260904132450 | 27 | 42 | 0.0 | 1.6 | 0.00 | 0.00 | 0.00 | 92 | 1009.9 |
| 20260904131450 | 27 | 42 | 0.0 | 0.0 | 0.00 | 0.00 | 0.00 | 92 | 1009.7 |
| 20260904130450 | 27 | 42 | 0.0 | 0.0 | 0.00 | 0.00 | 0.00 | 92 | 1009.7 |
| 20260904125450 | 26 | 42 | 0.0 | 0.0 | 0.00 | 0.00 | 0.00 | 92 | 1009.7 |
| 20260904124450 | 26 | 42 | 0.0 | 0.0 | 0.00 | 0.00 | 0.00 | 92 | 1009.5 |
| 20260904123453 | 26 | 42 | 0.0 | 0.0 | 0.00 | 0.00 | 0.00 | 92 | 1009.5 |
| 20260904122450 | 26 | 42 | 0.0 | 0.0 | 0.00 | 0.00 | 0.00 | 91 | 1009.2 |
| 20260904121450 | 26 | 42 | 0.0 | 0.0 | 0.00 | 0.00 | 0.00 | 91 | 1009.1 |
| 20260904120453 | 26 | 42 | 0.0 | 0.0 | 0.00 | 0.00 | 0.00 | 91 | 1009.1 |
| 20260904115453 | 26 | 42 | 0.0 | 0.0 | 0.00 | 0.00 | 0.00 | 91 | 1009.1 |
| 20260904114450 | 26 | 42 | 0.0 | 0.0 | 0.00 | 0.00 | 0.00 | 91 | 1009.1 |
| 20260904113449 | 26 | 42 | 0.0 | 0.0 | 0.00 | 0.00 | 0.00 | 91 | 1009.1 |
| 20260904112449 | 26 | 42 | 0.0 | 0.0 | 0.00 | 0.00 | 0.00 | 91 | 1009.1 |
| 20260904111450 | 26 | 42 | 0.0 | 0.0 | 0.00 | 0.00 | 0.00 | 91 | 1009.1 |
| 20260904110450 | 26 | 42 | 0.0 | 0.0 | 0.00 | 0.00 | 0.00 | 91 | 1009.1 |
| 20260904105453 | 26 | 42 | 0.0 | 0.0 | 0.00 | 0.00 | 0.00 | 91 | 1008.9 |
| 20260904104449 | 26 | 42 | 0.0 | 0.0 | 0.00 | 0.00 | 0.00 | 90 | 1008.7 |
| 20260904103453 | 26 | 42 | 0.0 | 0.0 | 0.00 | 0.00 | 0.00 | 90 | 1008.7 |
| 20260904102450 | 26 | 42 | 0.0 | 0.0 | 0.00 | 0.00 | 0.00 | 90 | 1008.6 |
| 20260904101450 | 26 | 42 | 0.0 | 0.0 | 0.00 | 0.00 | 0.00 | 90 | 1008.6 |
| 20260904100449 | 26 | 42 | 0.0 | 0.0 | 0.00 | 0.00 | 0.00 | 90 | 1008.6 |
| 20260904095450 | 26 | 42 | 0.0 | 0.0 | 0.00 | 0.00 | 0.00 | 90 | 1008.6 |
| 20260904094450 | 26 | 42 | 0.0 | 0.0 | 0.00 | 0.00 | 0.00 | 90 | 1008.5 |
| 20260904093450 | 26 | 42 | 0.0 | 0.0 | 0.00 | 0.00 | 0.00 | 90 | 1008.5 |
| 20260904092449 | 26 | 42 | 0.0 | 0.0 | 0.00 | 0.00 | 0.00 | 90 | 1008.5 |
| 20260904091450 | 26 | 42 | 0.0 | 0.0 | 0.00 | 0.00 | 0.00 | 90 | 1008.5 |
| 20260904090449 | 26 | 42 | 0.0 | 0.0 | 0.00 | 0.00 | 0.00 | 90 | 1008.5 |